DW6193 Weather Reports


Display with metric or nautical units.
time (UTC)temp
F
wind
direction
speed
MPH
gust
MPH
rain 1hr
in
rain 24hr
in
rain mn
in
humidity
%
barometer
mb
20260901172026 60 290 2.0 6.0 0.00 0.00 0.00 1013.6
20260901171600 60 274 1.0 8.0 0.00 0.00 0.00 1013.7
20260901171024 59 278 2.0 8.0 0.00 0.00 0.00 1013.7
20260901170526 58 290 4.0 9.0 0.00 0.00 0.00 1013.6
20260901170057 59 288 3.0 10.0 0.00 0.00 0.00 1013.6
20260901165525 59 275 4.0 10.0 0.00 0.00 0.00 1013.6
20260901165024 59 189 3.0 9.0 0.00 0.00 0.00 1013.5
20260901164546 59 295 2.0 9.0 0.00 0.00 0.00 1013.6
20260901164027 58 286 4.0 9.0 0.00 0.00 0.00 1013.5
20260901163527 58 249 4.0 9.0 0.00 0.00 0.00 1013.5
20260901163054 59 285 5.0 9.0 0.00 0.00 0.00 1013.4
20260901162525 60 243 2.0 8.0 0.00 0.00 0.00 1013.4
20260901162029 60 355 2.0 6.0 0.00 0.00 0.00 1013.3
20260901161552 61 151 1.0 4.0 0.00 0.00 0.00 1013.3
20260901161026 60 275 1.0 6.0 0.00 0.00 0.00 1013.4
20260901160525 60 302 1.0 6.0 0.00 0.00 0.00 1013.3
20260901160109 59 175 1.0 6.0 0.00 0.00 0.00 1013.3
20260901155527 60 213 2.0 6.0 0.00 0.00 0.00 1013.2
20260901155028 60 151 1.0 6.0 0.00 0.00 0.00 1013.2
20260901154545 59 151 2.0 6.0 0.00 0.00 0.00 1013.3
20260901154025 60 0 1.0 4.0 0.00 0.00 0.00 1013.2
20260901153526 60 264 2.0 4.0 0.00 0.00 0.00 1013.3
20260901153058 60 304 0.0 5.0 0.00 0.00 0.00 1013.3
20260901152529 59 234 1.0 6.0 0.00 0.00 0.00 1013.3
20260901152025 59 246 2.0 6.0 0.00 0.00 0.00 1013.2
20260901151546 60 277 1.0 4.0 0.00 0.00 0.00 1013.1
20260901151026 60 0 1.0 5.0 0.00 0.00 0.00 1013.1
20260901150530 59 166 1.0 5.0 0.00 0.00 0.00 1013.1
20260901150108 59 214 2.0 5.0 0.00 0.00 0.00 1013.2
20260901145527 60 106 1.0 5.0 0.00 0.00 0.00 1013.2
20260901145027 59 160 1.0 5.0 0.00 0.00 0.00 1013.3
20260901144552 60 329 1.0 3.0 0.00 0.00 0.00 1013.1
20260901144025 60 0 0.0 2.0 0.00 0.00 0.00 1013.1
20260901143527 59 268 0.0 3.0 0.00 0.00 0.00 1013.1
20260901143107 59 99 1.0 3.0 0.00 0.00 0.00 1013.2
20260901142526 60 0 0.0 3.0 0.00 0.00 0.00 1013.2
20260901142024 59 0 1.0 3.0 0.00 0.00 0.00 1013.2
20260901141545 59 236 0.0 5.0 0.00 0.00 0.00 1013.1
20260901141025 59 0 1.0 6.0 0.00 0.00 0.00 1013.1
20260901140526 59 76 1.0 6.0 0.00 0.00 0.00 1013.0
20260901140128 59 147 0.0 3.0 0.00 0.00 0.00 1013.1
20260901135529 59 0 1.0 3.0 0.00 0.00 0.00 1013.1
20260901135028 59 0 0.0 3.0 0.00 0.00 0.00 1013.1
20260901134549 59 268 1.0 3.0 0.00 0.00 0.00 1013.0
20260901134031 60 99 0.0 2.0 0.00 0.00 0.00 1013.0
20260901133527 59 55 0.0 3.0 0.00 0.00 0.00 1013.0
20260901133046 59 116 0.0 3.0 0.00 0.00 0.00 1013.0
20260901132529 59 64 0.0 3.0 0.00 0.00 0.00 1013.0
20260901132031 59 0 1.0 4.0 0.00 0.00 0.00 1013.0
20260901131546 59 141 1.0 4.0 0.00 0.00 0.00 1013.0
20260901131028 59 0 0.0 2.0 0.00 0.00 0.00 1012.9
20260901130530 59 227 0.0 2.0 0.00 0.00 0.00 1012.9
20260901130051 59 0 0.0 2.0 0.00 0.00 0.00 1012.9
20260901125524 59 0 0.0 3.0 0.00 0.00 0.00 1012.9
20260901125025 59 0 0.0 3.0 0.00 0.00 0.00 1012.9
20260901124547 58 355 1.0 3.0 0.00 0.00 0.00 1012.9
20260901124030 59 112 0.0 4.0 0.00 0.00 0.00 1012.9
20260901123528 58 295 1.0 4.0 0.00 0.00 0.00 1012.9
20260901123045 59 307 1.0 4.0 0.00 0.00 0.00 1012.9
20260901122526 59 0 0.0 3.0 0.00 0.00 0.00 1012.8
20260901122027 59 210 0.0 3.0 0.00 0.00 0.00 1013.0
20260901121543 58 283 1.0 4.0 0.00 0.00 0.00 1013.0
20260901121029 58 248 1.0 4.0 0.00 0.00 0.00 1012.9
20260901120526 58 302 0.0 4.0 0.00 0.00 0.00 1012.9
20260901120052 59 141 1.0 4.0 0.00 0.00 0.00 1012.9
20260901115529 59 0 1.0 5.0 0.00 0.00 0.00 1012.9
20260901115024 58 0 2.0 5.0 0.00 0.00 0.00 1012.8
20260901114550 58 288 1.0 7.0 0.00 0.00 0.00 1012.9
20260901114029 58 338 3.0 7.0 0.00 0.00 0.00 1012.9
20260901113532 58 280 4.0 9.0 0.00 0.00 0.00 1012.8
20260901113103 58 288 3.0 12.0 0.00 0.00 0.00 1012.8
20260901112526 58 298 5.0 12.0 0.00 0.00 0.00 1012.8
20260901112025 57 302 4.0 11.0 0.00 0.00 0.00 1012.7
20260901111545 58 277 4.0 11.0 0.00 0.00 0.00 1012.7
20260901111028 58 230 5.0 10.0 0.00 0.00 0.00 1012.6
20260901110526 58 264 4.0 10.0 0.00 0.00 0.00 1012.6
20260901110052 58 283 4.0 10.0 0.00 0.00 0.00 1012.5
20260901105529 58 245 5.0 11.0 0.00 0.00 0.00 1012.5
20260901105026 58 261 6.0 11.0 0.00 0.00 0.00 1012.5
20260901104546 58 192 4.0 9.0 0.00 0.00 0.00 1012.5
20260901104028 58 245 3.0 7.0 0.00 0.00 0.00 1012.6
20260901103528 58 292 4.0 9.0 0.00 0.00 0.00 1012.4
20260901103054 58 268 3.0 9.0 0.00 0.00 0.00 1012.4
20260901102528 59 273 2.0 7.0 0.00 0.00 0.00 1012.3
20260901102025 59 295 3.0 8.0 0.00 0.00 0.00 1012.4
20260901101559 59 302 4.0 10.0 0.00 0.00 0.00 1012.3
20260901101024 59 261 4.0 10.0 0.00 0.00 0.00 1012.4
20260901100525 60 264 3.0 10.0 0.00 0.00 0.00 1012.3
20260901100051 60 234 2.0 10.0 0.00 0.00 0.00 1012.3
20260901095525 60 284 3.0 7.0 0.00 0.00 0.00 1012.4
20260901095027 60 116 2.0 5.0 0.00 0.00 0.00 1012.2
20260901094554 60 288 0.0 3.0 0.00 0.00 0.00 1012.2
20260901094029 60 268 1.0 3.0 0.00 0.00 0.00 1012.1
20260901093525 61 0 0.0 3.0 0.00 0.00 0.00 1012.0
20260901093050 61 0 0.0 4.0 0.00 0.00 0.00 1012.0
20260901092527 61 99 0.0 4.0 0.00 0.00 0.00 1012.1
20260901092028 60 291 1.0 4.0 0.00 0.00 0.00 1012.0
20260901091554 60 255 1.0 4.0 0.00 0.00 0.00 1011.9
20260901091025 60 276 1.0 4.0 0.00 0.00 0.00 1011.7
20260901090524 61 0 0.0 4.0 0.00 0.00 0.00 1011.9
20260901090046 61 236 1.0 8.0 0.00 0.00 0.00 1011.9
20260901085527 61 311 0.0 8.0 0.00 0.00 0.00 1011.8
20260901085027 60 39 4.0 8.0 0.00 0.00 0.00 1011.7
20260901084553 60 264 3.0 10.0 0.00 0.00 0.00 1011.7
20260901084025 61 284 3.0 15.0 0.00 0.00 0.00 1011.5
20260901083526 61 281 5.0 15.0 0.00 0.00 0.00 1011.6
20260901083050 62 286 8.0 15.0 0.00 0.00 0.00 1011.5
20260901082527 61 299 9.0 15.0 0.00 0.00 0.00 1011.6
20260901082033 62 291 9.0 15.0 0.00 0.00 0.00 1011.6
20260901081604 62 257 8.0 19.0 0.00 0.00 0.00 1011.6
20260901081025 62 268 8.0 19.0 0.00 0.00 0.00 1011.6
20260901080528 62 283 10.0 19.0 0.00 0.00 0.00 1011.6
20260901080141 62 281 9.0 18.0 0.00 0.00 0.00 1011.5
20260901075528 62 259 10.0 18.0 0.00 0.00 0.00 1011.4
20260901075026 63 263 10.0 16.0 0.00 0.00 0.00 1011.4
20260901074633 64 246 8.0 17.0 0.00 0.00 0.00 1011.4
20260901074027 64 288 9.0 16.0 0.00 0.00 0.00 1011.3
20260901073527 65 290 9.0 16.0 0.00 0.00 0.00 1011.3
20260901073045 65 281 10.0 15.0 0.00 0.00 0.00 1011.1
20260901072528 65 272 9.0 16.0 0.00 0.00 0.00 1011.1
20260901072028 65 257 9.0 18.0 0.00 0.00 0.00 1011.1
20260901071553 65 300 10.0 18.0 0.00 0.00 0.00 1011.0
20260901071031 66 278 10.0 17.0 0.00 0.00 0.00 1010.9
20260901070527 66 240 10.0 18.0 0.00 0.00 0.00 1011.0
20260901065529 66 268 11.0 19.0 0.00 0.00 0.00 1010.7
20260901065029 66 272 10.0 21.0 0.00 0.00 0.00 1010.7
20260901064545 66 272 11.0 21.0 0.00 0.00 0.00 1010.6
20260901064029 67 247 12.0 21.0 0.00 0.00 0.00 1010.4
20260901063540 67 275 8.0 19.0 0.00 0.00 0.00 1010.6
20260901063058 67 224 11.0 21.0 0.00 0.00 0.00 1010.4
20260901062524 67 234 12.0 21.0 0.00 0.00 0.00 1010.3
20260901062027 67 295 10.0 21.0 0.00 0.00 0.00 1010.4
20260901061604 67 245 12.0 21.0 0.00 0.00 0.00 1010.2
20260901061024 68 240 12.0 20.0 0.00 0.00 0.00 1010.2
20260901060531 68 198 11.0 18.0 0.00 0.00 0.00 1010.1
20260901060056 69 268 10.0 17.0 0.00 0.00 0.00 1010.0
20260901055527 69 200 9.0 19.0 0.00 0.00 0.00 1010.0
20260901055027 69 279 10.0 21.0 0.00 0.00 0.00 1010.0
20260901054553 69 275 12.0 20.0 0.00 0.00 0.00 1009.9
20260901054025 69 272 12.0 18.0 0.00 0.00 0.00 1009.9
20260901053526 70 255 11.0 18.0 0.00 0.00 0.00 1010.0
20260901053055 71 282 8.0 17.0 0.00 0.00 0.00 1009.8
20260901052527 71 286 3.0 7.0 0.00 0.00 0.00 1009.9
20260901052030 74 55 2.0 9.0 0.00 0.00 0.00 1009.8
20260901051545 75 300 5.0 9.0 0.00 0.00 0.00 1009.8
20260901051029 75 292 4.0 8.0 0.00 0.00 0.00 1009.7
20260901050526 75 288 5.0 8.0 0.00 0.00 0.00 1009.7
20260901050052 75 285 5.0 8.0 0.00 0.00 0.00 1009.7
20260901045528 74 275 5.0 7.0 0.00 0.00 0.00 1009.7
20260901045026 73 272 4.0 6.0 0.00 0.00 0.00 1009.6
20260901044609 73 268 2.0 5.0 0.00 0.00 0.00 1009.7
20260901044025 74 329 1.0 5.0 0.00 0.00 0.00 1009.6
20260901043528 74 236 1.0 5.0 0.00 0.00 0.00 1009.7
20260901043050 74 268 2.0 7.0 0.00 0.00 0.00 1009.7
20260901042527 74 260 2.0 7.0 0.00 0.00 0.00 1009.6
20260901042027 75 268 2.0 5.0 0.00 0.00 0.00 1009.6
20260901041547 75 278 0.0 3.0 0.00 0.00 0.00 1009.4
20260901041028 76 0 1.0 3.0 0.00 0.00 0.00 1009.4
20260901040524 76 268 0.0 4.0 0.00 0.00 0.00 1009.4
20260901035525 76 255 1.0 6.0 0.00 0.00 0.00 1009.2
20260901035024 76 322 1.0 9.0 0.00 0.00 0.00 1009.3
20260901034551 76 274 3.0 9.0 0.00 0.00 0.00 1009.1
20260901034026 76 311 3.0 7.0 0.00 0.00 0.00 1009.2
20260901033524 76 285 3.0 10.0 0.00 0.00 0.00 1009.0
20260901033051 76 252 5.0 11.0 0.00 0.00 0.00 1009.0
20260901032527 76 297 7.0 11.0 0.00 0.00 0.00 1008.9
20260901032028 76 268 7.0 11.0 0.00 0.00 0.00 1008.9
20260901031545 76 254 8.0 11.0 0.00 0.00 0.00 1008.8
20260901031027 76 267 7.0 11.0 0.00 0.00 0.00 1008.8
20260901030525 77 268 7.0 11.0 0.00 0.00 0.00 1008.7
20260901030052 77 273 7.0 12.0 0.00 0.00 0.00 1008.8
20260901025527 77 288 8.0 12.0 0.00 0.00 0.00 1008.7
20260901025025 77 295 8.0 13.0 0.00 0.00 0.00 1008.7
20260901024559 77 288 7.0 13.0 0.00 0.00 0.00 1008.8
20260901024028 78 290 7.0 11.0 0.00 0.00 0.00 1008.8
20260901023526 78 283 7.0 11.0 0.00 0.00 0.00 1008.9
20260901023049 78 285 7.0 11.0 0.00 0.00 0.00 1008.7
20260901022531 79 283 7.0 11.0 0.00 0.00 0.00 1008.8
20260901022027 79 303 7.0 10.0 0.00 0.00 0.00 1008.7
20260901021604 79 301 7.0 10.0 0.00 0.00 0.00 1008.8
20260901021028 79 300 6.0 11.0 0.00 0.00 0.00 1008.7
20260901020527 80 293 6.0 11.0 0.00 0.00 0.00 1008.7
20260901020050 80 297 6.0 10.0 0.00 0.00 0.00 1008.7
20260901015523 81 298 4.0 7.0 0.00 0.00 0.00 1008.7
20260901015025 81 285 3.0 6.0 0.00 0.00 0.00 1008.6
20260901014546 82 281 2.0 4.0 0.00 0.00 0.00 1008.7
20260901014024 84 276 2.0 5.0 0.00 0.00 0.00 1008.6
20260901013527 84 305 1.0 6.0 0.00 0.00 0.00 1008.5
20260901013101 83 295 1.0 5.0 0.00 0.00 0.00 1008.5
20260901012531 84 252 1.0 4.0 0.00 0.00 0.00 1008.5
20260901012029 85 0 1.0 5.0 0.00 0.00 0.00 1008.5
20260901011548 86 268 1.0 5.0 0.00 0.00 0.00 1008.5
20260901011030 87 295 1.0 4.0 0.00 0.00 0.00 1008.5
20260901010525 89 286 1.0 4.0 0.00 0.00 0.00 1008.5
20260901010045 91 355 1.0 4.0 0.00 0.00 0.00 1008.4
20260901005527 89 337 1.0 3.0 0.00 0.00 0.00 1008.5
20260901005027 93 0 0.0 3.0 0.00 0.00 0.00 1008.5
20260901004557 94 311 1.0 4.0 0.00 0.00 0.00 1008.5
20260901004024 90 355 0.0 6.0 0.00 0.00 0.00 1008.6
20260901003524 87 268 1.0 6.0 0.00 0.00 0.00 1008.6
20260901003052 89 0 1.0 6.0 0.00 0.00 0.00 1008.5
20260901002526 89 210 1.0 3.0 0.00 0.00 0.00 1008.5
20260901002027 91 355 1.0 4.0 0.00 0.00 0.00 1008.5
20260901001549 94 0 0.0 4.0 0.00 0.00 0.00 1008.5
20260901001025 98 99 1.0 4.0 0.00 0.00 0.00 1008.6
20260901000527 98 311 1.0 4.0 0.00 0.00 0.00 1008.4
20260901000057 99 254 1.0 3.0 0.00 0.00 0.00 1008.5
20260831235528 100 252 0.0 4.0 0.00 0.00 0.00 1008.6
20260831235028 99 0 0.0 5.0 0.00 0.00 0.00 1008.5
20260831234557 95 355 1.0 5.0 0.00 0.00 0.00 1008.6
20260831234029 95 275 2.0 7.0 0.00 0.00 0.00 1008.6
20260831233529 96 0 2.0 7.0 0.00 0.00 0.00 1008.6
20260831233050 95 319 2.0 6.0 0.00 0.00 0.00 1008.6
20260831232531 95 290 2.0 6.0 0.00 0.00 0.00 1008.7
20260831232029 94 39 2.0 8.0 0.00 0.00 0.00 1008.8
20260831231603 94 105 2.0 8.0 0.00 0.00 0.00 1008.7
20260831231028 93 12 3.0 8.0 0.00 0.00 0.00 1008.5
20260831230530 94 268 2.0 8.0 0.00 0.00 0.00 1008.7
20260831230100 96 355 1.0 13.0 0.00 0.00 0.00 1008.8
20260831225529 92 207 2.0 13.0 0.00 0.00 0.00 1008.6
20260831225027 95 274 2.0 9.0 0.00 0.00 0.00 1008.7
20260831224619 94 69 3.0 9.0 0.00 0.00 0.00 1008.5
20260831224027 96 99 1.0 5.0 0.00 0.00 0.00 1008.9
20260831223528 96 216 1.0 6.0 0.00 0.00 0.00 1008.8
20260831223059 95 114 1.0 10.0 0.00 0.00 0.00 1008.9
20260831222526 93 355 2.0 14.0 0.00 0.00 0.00 1008.9
20260831222029 94 275 3.0 14.0 0.00 0.00 0.00 1008.8
20260831221555 94 101 2.0 10.0 0.00 0.00 0.00 1009.1
20260831221027 90 141 2.0 9.0 0.00 0.00 0.00 1009.2
20260831220529 90 55 2.0 7.0 0.00 0.00 0.00 1009.1
20260831220053 90 337 3.0 8.0 0.00 0.00 0.00 1009.2
20260831215529 89 295 3.0 8.0 0.00 0.00 0.00 1009.2
20260831215028 90 170 2.0 9.0 0.00 0.00 0.00 1009.4
20260831214549 89 268 3.0 10.0 0.00 0.00 0.00 1009.3
20260831214033 89 62 3.0 13.0 0.00 0.00 0.00 1009.3
20260831213528 88 303 4.0 13.0 0.00 0.00 0.00 1009.4
20260831213101 90 66 3.0 17.0 0.00 0.00 0.00 1009.3
20260831212529 88 123 4.0 17.0 0.00 0.00 0.00 1009.3
20260831212031 90 134 5.0 17.0 0.00 0.00 0.00 1009.4
20260831211605 88 141 5.0 17.0 0.00 0.00 0.00 1009.3
20260831211025 87 300 3.0 15.0 0.00 0.00 0.00 1009.3
20260831210529 87 315 4.0 15.0 0.00 0.00 0.00 1009.3
20260831210057 88 277 4.0 14.0 0.00 0.00 0.00 1009.5
20260831205527 87 16 5.0 16.0 0.00 0.00 0.00 1009.5
20260831205027 87 345 4.0 16.0 0.00 0.00 0.00 1009.6
20260831204546 86 162 5.0 17.0 0.00 0.00 0.00 1009.4
20260831204028 85 151 5.0 17.0 0.00 0.00 0.00 1009.5
20260831203525 85 141 5.0 16.0 0.00 0.00 0.00 1009.5
20260831203048 85 277 4.0 25.0 0.00 0.00 0.00 1009.6
20260831202528 85 164 9.0 25.0 0.00 0.00 0.00 1009.4
20260831202026 86 111 5.0 17.0 0.00 0.00 0.00 1009.6
20260831201556 86 324 4.0 19.0 0.00 0.00 0.00 1009.8
20260831201026 86 72 5.0 19.0 0.00 0.00 0.00 1009.9
20260831200526 85 109 5.0 19.0 0.00 0.00 0.00 1009.9
20260831200050 85 355 5.0 21.0 0.00 0.00 0.00 1010.0
20260831195527 85 74 6.0 25.0 0.00 0.00 0.00 1010.2
20260831195031 85 64 6.0 25.0 0.00 0.00 0.00 1010.2
20260831194555 84 315 6.0 25.0 0.00 0.00 0.00 1010.3
20260831194026 84 101 6.0 17.0 0.00 0.00 0.00 1010.5
20260831193527 84 311 6.0 21.0 0.00 0.00 0.00 1010.5
20260831193057 83 334 5.0 21.0 0.00 0.00 0.00 1010.6
20260831192526 84 145 5.0 21.0 0.00 0.00 0.00 1010.7
20260831192025 84 114 4.0 19.0 0.00 0.00 0.00 1010.7
20260831191551 83 153 5.0 15.0 0.00 0.00 0.00 1010.7
20260831191027 82 146 5.0 16.0 0.00 0.00 0.00 1010.8
20260831190524 82 280 6.0 19.0 0.00 0.00 0.00 1010.8
20260831190050 83 355 5.0 19.0 0.00 0.00 0.00 1010.9
20260831185525 83 9 6.0 19.0 0.00 0.00 0.00 1011.1
20260831185026 82 319 4.0 18.0 0.00 0.00 0.00 1011.1
20260831184551 80 110 5.0 16.0 0.00 0.00 0.00 1011.1
20260831184025 81 255 4.0 16.0 0.00 0.00 0.00 1011.0
20260831183528 79 158 5.0 20.0 0.00 0.00 0.00 1011.2
20260831183048 79 121 5.0 20.0 0.00 0.00 0.00 1011.2
20260831182525 79 239 4.0 15.0 0.00 0.00 0.00 1011.2
20260831182029 79 243 5.0 16.0 0.00 0.00 0.00 1011.3
20260831181548 79 290 6.0 17.0 0.00 0.00 0.00 1011.3
20260831181029 79 101 5.0 17.0 0.00 0.00 0.00 1011.3
20260831180531 79 277 6.0 16.0 0.00 0.00 0.00 1011.5
20260831180059 79 315 5.0 19.0 0.00 0.00 0.00 1011.5
20260831175529 78 118 5.0 21.0 0.00 0.00 0.00 1011.7
20260831175029 77 106 6.0 21.0 0.00 0.00 0.00 1011.7
20260831174550 76 290 7.0 18.0 0.00 0.00 0.00 1011.8
20260831174027 77 227 6.0 20.0 0.00 0.00 0.00 1011.5
20260831173528 77 115 6.0 20.0 0.00 0.00 0.00 1011.5
20260831173049 77 9 6.0 23.0 0.00 0.00 0.00 1011.5
20260831172529 76 109 8.0 23.0 0.00 0.00 0.00 1011.5